West Bend, WI

6:23 AM CDT on September 29, 2016 (GMT -0500)
West Bend Municipal

Weather History for KETB - July, 2013

Change the Weather History Date:

Tuesday, July 16, 2013

  Actual Average Record
Temperature  
Mean Temperature 79 °F -  
Max Temperature 89 °F 83 °F 99 °F (1931)
Min Temperature 69 °F 59 °F 42 °F (1945)
Cooling Degree Days 14    
Growing Degree Days 29 (Base 50)    
Moisture  
Dew Point 69 °F    
Average Humidity 72    
Maximum Humidity 94    
Minimum Humidity 49    
Precipitation  
Precipitation 0.05 in - - ()
Sea Level Pressure  
Sea Level Pressure 30.27 in    
Wind  
Wind Speed 2 mph (SW)    
Max Wind Speed 14 mph    
Max Gust Speed -    
Visibility 8 miles    
Events Fog , Rain    
Averages and records for this station are not official NWS values.
T = Trace of Precipitation, MM = Missing Value Source: NWS Daily Summary

Daily Weather History Graph

Daily Weather History Graph

Search for Another Location

Airport or City:

Trip Planner

Search our weather history database for the weather conditions in past years. The results will help you decide how hot, cold, wet, or windy it might be!

Date:

Astronomy

Jul. 16, 2013 Rise Set
Actual Time 5:26 AM CDT 8:30 PM CDT
Civil Twilight 4:52 AM CDT 9:04 PM CDT
Nautical Twilight 4:08 AM CDT 9:48 PM CDT
Astronomical Twilight 3:15 AM CDT 10:40 PM CDT
Moon 2:07 PM CDT (7/16) 12:01 AM CDT (7/16)
Length of Visible Light 16h 11m
Length of Day
15h 03m
First Quarter, 56% of the Moon is Illuminated
Jul 16
First Quarter
Jul 22
Full
Jul 29
Last Quarter
Aug 6
New
Aug 14
First Quarter

Hourly Weather History & Observations

Time (CDT) Temp. Heat Index Dew Point Humidity Pressure Visibility Wind Dir Wind Speed Gust Speed Precip Events Conditions
12:15 AM 73.4 °F - 68.0 °F 83% 30.26 in 10.0 mi Calm Calm - N/A   Overcast
12:35 AM 71.6 °F - 68.0 °F 88% 30.26 in 10.0 mi Calm Calm - N/A   Scattered Clouds
12:55 AM 71.6 °F - 68.0 °F 88% 30.27 in 10.0 mi Calm Calm - N/A   Clear
1:15 AM 69.8 °F - 66.2 °F 88% 30.27 in 7.0 mi Calm Calm - N/A   Clear
1:35 AM 69.8 °F - 68.0 °F 94% 30.27 in 7.0 mi ESE 4.6 mph - N/A   Clear
1:55 AM 69.8 °F - 66.2 °F 88% 30.27 in 7.0 mi ESE 3.5 mph - N/A   Clear
2:15 AM 69.8 °F - 66.2 °F 88% 30.28 in 5.0 mi Calm Calm - N/A   Clear
2:35 AM 69.8 °F - 66.2 °F 88% 30.28 in 5.0 mi Calm Calm - N/A   Clear
2:55 AM 69.8 °F - 66.2 °F 88% 30.27 in 7.0 mi Calm Calm - N/A   Clear
3:15 AM 69.8 °F - 68.0 °F 94% 30.27 in 3.0 mi Calm Calm - N/A   Scattered Clouds
3:35 AM 69.8 °F - 68.0 °F 94% 30.28 in 5.0 mi Calm Calm - N/A   Mostly Cloudy
3:55 AM 69.8 °F - 68.0 °F 94% 30.28 in 4.0 mi Calm Calm - N/A   Overcast
4:15 AM 69.8 °F - 68.0 °F 94% 30.28 in 3.0 mi Calm Calm - N/A   Overcast
4:35 AM 69.8 °F - 68.0 °F 94% 30.28 in 3.0 mi Calm Calm - N/A   Overcast
4:55 AM 69.8 °F - 68.0 °F 94% 30.29 in 2.0 mi Calm Calm - N/A   Overcast
5:15 AM 69.8 °F - 68.0 °F 94% 30.29 in 1.2 mi Calm Calm - N/A   Overcast
5:35 AM 69.8 °F - 68.0 °F 94% 30.29 in 1.0 mi Calm Calm - N/A   Overcast
5:55 AM 69.8 °F - 68.0 °F 94% 30.29 in 0.8 mi Calm Calm - N/A   Overcast
6:15 AM 69.8 °F - 68.0 °F 94% 30.29 in 0.5 mi Calm Calm - N/A Fog Fog
6:35 AM 71.6 °F - 69.8 °F 94% 30.29 in 2.5 mi Calm Calm - N/A   Overcast
6:55 AM 71.6 °F - 69.8 °F 94% 30.30 in 3.0 mi Calm Calm - N/A   Scattered Clouds
7:15 AM 73.4 °F - 69.8 °F 88% 30.30 in 5.0 mi Calm Calm - N/A   Haze
7:35 AM 77.0 °F - 69.8 °F 78% 30.30 in 7.0 mi SSW 3.5 mph - N/A   Clear
7:55 AM 77.0 °F - 69.8 °F 78% 30.30 in 10.0 mi SSW 3.5 mph - N/A   Clear
8:15 AM 78.8 °F - 69.8 °F 74% 30.30 in 10.0 mi SW 3.5 mph - N/A   Clear
8:35 AM 80.6 °F 83.9 °F 69.8 °F 70% 30.30 in 10.0 mi WSW 5.8 mph - N/A   Clear
8:55 AM 80.6 °F 83.9 °F 69.8 °F 70% 30.30 in 10.0 mi WSW 6.9 mph - N/A   Clear
9:15 AM 82.4 °F 86.3 °F 69.8 °F 66% 30.30 in 10.0 mi WSW 5.8 mph - N/A   Clear
9:35 AM 84.2 °F 88.4 °F 69.8 °F 62% 30.30 in 10.0 mi SW 5.8 mph - N/A   Scattered Clouds
9:55 AM 84.2 °F 88.4 °F 69.8 °F 62% 30.30 in 10.0 mi WSW 3.5 mph - N/A   Scattered Clouds
10:15 AM 86.0 °F 90.4 °F 69.8 °F 58% 30.29 in 10.0 mi SSW 4.6 mph - N/A   Mostly Cloudy
10:55 AM 87.8 °F 92.6 °F 69.8 °F 55% 30.29 in 10.0 mi West 5.8 mph - N/A   Scattered Clouds
11:15 AM 87.8 °F 91.4 °F 68.0 °F 52% 30.29 in 10.0 mi SW 5.8 mph - N/A   Mostly Cloudy
11:35 AM 86.0 °F 89.4 °F 68.0 °F 55% 30.28 in 10.0 mi SW 5.8 mph - N/A   Mostly Cloudy
11:55 AM 86.0 °F 89.4 °F 68.0 °F 55% 30.28 in 10.0 mi Calm Calm - N/A   Mostly Cloudy
12:15 PM 87.8 °F 91.4 °F 68.0 °F 52% 30.28 in 10.0 mi SW 5.8 mph - N/A   Mostly Cloudy
12:35 PM 87.8 °F 90.4 °F 66.2 °F 49% 30.28 in 10.0 mi South 6.9 mph - N/A   Mostly Cloudy
12:55 PM 89.6 °F 93.4 °F 68.0 °F 49% 30.28 in 10.0 mi SW 8.1 mph - N/A   Mostly Cloudy
1:15 PM 87.8 °F 91.4 °F 68.0 °F 52% 30.27 in 10.0 mi SSW 5.8 mph - N/A   Scattered Clouds
1:35 PM 87.8 °F 91.4 °F 68.0 °F 52% 30.27 in 10.0 mi SW 9.2 mph - N/A   Mostly Cloudy
1:55 PM 89.6 °F 93.4 °F 68.0 °F 49% 30.26 in 10.0 mi SW 4.6 mph - N/A   Scattered Clouds
2:15 PM 89.6 °F 93.4 °F 68.0 °F 49% 30.26 in 10.0 mi SW 8.1 mph - N/A   Scattered Clouds
2:35 PM 89.6 °F 93.4 °F 68.0 °F 49% 30.26 in 10.0 mi WSW 6.9 mph - N/A   Mostly Cloudy
3:55 PM 89.6 °F 93.4 °F 68.0 °F 49% 30.25 in 10.0 mi WSW 5.8 mph - N/A   Mostly Cloudy
4:15 PM 89.6 °F 93.4 °F 68.0 °F 49% 30.25 in 10.0 mi WSW 8.1 mph - N/A   Scattered Clouds
4:35 PM 87.8 °F 91.4 °F 68.0 °F 52% 30.25 in 10.0 mi SW 6.9 mph - N/A   Scattered Clouds
4:55 PM 89.6 °F 93.4 °F 68.0 °F 49% 30.24 in 10.0 mi WSW 4.6 mph - N/A   Scattered Clouds
5:15 PM 89.6 °F 93.4 °F 68.0 °F 49% 30.24 in 10.0 mi SW 6.9 mph - N/A   Scattered Clouds
5:35 PM 89.6 °F 93.4 °F 68.0 °F 49% 30.24 in 10.0 mi SW 6.9 mph - N/A   Scattered Clouds
5:55 PM 89.6 °F 93.4 °F 68.0 °F 49% 30.24 in 10.0 mi SSW 8.1 mph - N/A   Scattered Clouds
6:15 PM 87.8 °F 91.4 °F 68.0 °F 52% 30.25 in 10.0 mi SW 8.1 mph - N/A   Scattered Clouds
6:35 PM 87.8 °F 91.4 °F 68.0 °F 52% 30.25 in 10.0 mi SW 13.8 mph - N/A   Scattered Clouds
6:55 PM 80.6 °F 83.2 °F 68.0 °F 65% 30.24 in 7.0 mi Calm Calm - 0.04 in Rain Light Rain
7:15 PM 78.8 °F - 73.4 °F 83% 30.24 in 10.0 mi SW 3.5 mph - 0.01 in   Scattered Clouds
7:35 PM 80.6 °F 85.4 °F 73.4 °F 79% 30.24 in 10.0 mi SSW 3.5 mph - 0.01 in   Clear
7:55 PM 80.6 °F 85.4 °F 73.4 °F 79% 30.24 in 10.0 mi Calm Calm - 0.01 in   Clear
8:15 PM 80.6 °F 85.4 °F 73.4 °F 79% 30.24 in 10.0 mi SW 3.5 mph - N/A   Clear
8:35 PM 78.8 °F - 73.4 °F 83% 30.24 in 10.0 mi SW 3.5 mph - N/A   Clear
9:15 PM 78.8 °F - 71.6 °F 78% 30.25 in 10.0 mi Calm Calm - N/A   Clear
9:35 PM 78.8 °F - 71.6 °F 78% 30.26 in 10.0 mi SSW 3.5 mph - N/A   Clear
9:55 PM 78.8 °F - 71.6 °F 78% 30.26 in 10.0 mi SSW 3.5 mph - N/A   Clear
10:15 PM 78.8 °F - 69.8 °F 74% 30.26 in 10.0 mi SSW 3.5 mph - N/A   Clear
10:35 PM 78.8 °F - 69.8 °F 74% 30.26 in 10.0 mi SW 3.5 mph - N/A   Clear
10:55 PM 78.8 °F - 69.8 °F 74% 30.26 in 10.0 mi SW 3.5 mph - N/A   Clear
11:15 PM 78.8 °F - 69.8 °F 74% 30.26 in 10.0 mi SW 3.5 mph - N/A   Clear
11:35 PM 78.8 °F - 69.8 °F 74% 30.27 in 10.0 mi WSW 4.6 mph - N/A   Clear
11:55 PM 78.8 °F - 69.8 °F 74% 30.27 in 10.0 mi WSW 3.5 mph - N/A   Clear